This demonstration page uses our WeatherBlox Daily Observations layout. Learn more.

Hourly Observations for April 12, 2018

Temp ( °F °C ) Dew Point ( °F °C ) Humidity (%) Winds ( mph kmh ) Pressure ( in mb ) Visibility ( mi km ) Precip ( " mm )
12:15 am 00:15 Clear 55 12.6 37 3 52 52 NNE 12 19 29.68 1005 10 16.0934 0 0
12:35 am 00:35 Clear 53 11.4 37 2.9 56 56 NNE 10 17 29.68 1005 10 16.0934 0 0
12:55 am 00:55 Clear 52 11.3 38 3.1 57 57 NNE 12 19 29.71 1006 10 16.0934 0 0
1:15 am 01:15 Clear 51 10.6 37 3 60 60 NNE 8 13 29.71 1006 10 16.0934 0 0
1:35 am 01:35 Clear 51 10.5 38 3.1 60 60 NNE 9 15 29.71 1006 10 16.0934 0 0
1:55 am 01:55 Clear 48 8.8 37 2.5 65 65 N 8 13 29.74 1007 10 16.0934 0 0
2:15 am 02:15 Clear 49 9.3 38 3.4 67 67 N 13 20 29.74 1007 10 16.0934 0 0
2:35 am 02:35 Clear 49 9.3 39 3.8 69 69 N 10 17 29.74 1007 10 16.0934 0 0
2:55 am 02:55 Clear 47 8.6 39 4 73 73 N 10 17 29.74 1007 10 16.0934 0 0
3:15 am 03:15 Clear 47 8.1 39 4.1 76 76 NNE 10 17 29.71 1006 10 16.0934 0 0
3:35 am 03:35 Clear 47 8.1 40 4.4 78 78 N 9 15 29.71 1006 10 16.0934 0 0
3:55 am 03:55 Clear 45 7.4 39 3.9 79 79 N 8 13 29.71 1006 10 16.0934 0 0
4:15 am 04:15 Clear 44 6.6 39 3.8 83 83 NNE 7 11 29.71 1006 10 16.0934 0 0
4:35 am 04:35 Clear 44 6.7 39 4 83 83 NNE 8 13 29.71 1006 10 16.0934 0 0
4:55 am 04:55 Clear 44 6.5 39 4 84 84 NNE 6 9 29.71 1006 10 16.0934 0 0
5:15 am 05:15 Clear 42 5.4 38 3.3 86 86 NNE 6 9 29.74 1007 10 16.0934 0 0
5:35 am 05:35 Clear 40 4.5 37 2.7 88 88 NNE 7 11 29.74 1007 10 16.0934 0 0
5:55 am 05:55 Clear 40 4.2 37 2.5 89 89 NNE 6 9 29.74 1007 10 16.0934 0 0
6:15 am 06:15 Clear 38 3.4 36 2.1 91 91 NNE 6 9 29.74 1007 7 11.26538 0 0
6:35 am 06:35 Clear 39 4.1 38 3.1 93 93 NNE 7 11 29.74 1007 7 11.26538 0 0
6:55 am 06:55 Clear 39 4.1 37 2.9 92 92 NE 8 13 29.71 1006 7 11.26538 0 0
7:15 am 07:15 Sunny 39 4 37 3 93 93 NE 9 15 29.71 1006 7 11.26538 0 0
7:35 am 07:35 Sunny 41 5.1 39 4 93 93 NE 12 19 29.68 1005 7 11.26538 0 0
7:55 am 07:55 Sunny 43 6 40 4.5 90 90 ENE 13 20 29.65 1004 7 11.26538 0 0
8:15 am 08:15 Sunny 44 6.6 41 5 90 90 NE 13 20 29.65 1004 7 11.26538 0 0
8:35 am 08:35 Sunny 45 7.2 41 5.2 87 87 ENE 13 20 29.65 1004 10 16.0934 0 0
8:55 am 08:55 Sunny 46 7.8 42 5.6 86 86 ENE 16 26 29.65 1004 10 16.0934 0 0
9:15 am 09:15 Sunny 47 8.5 42 5.6 82 82 ENE 17 28 29.65 1004 10 16.0934 0 0
9:35 am 09:35 Sunny 49 9.3 42 5.7 78 78 ENE 21 33 29.62 1003 10 16.0934 0 0
9:55 am 09:55 Sunny 51 10.8 43 6.1 73 73 E 17 28 29.62 1003 10 16.0934 0 0
10:15 am 10:15 Sunny 53 11.5 43 6.2 70 70 E 23 37 29.59 1002 10 16.0934 0 0
10:35 am 10:35 Sunny 54 12.1 43 6.1 67 67 E 22 35 29.56 1001 10 16.0934 0 0
10:55 am 10:55 Sunny 55 12.7 42 5.6 62 62 E 21 33 29.56 1001 10 16.0934 0 0
11:15 am 11:15 Sunny 56 13.5 42 5.6 59 59 E 22 35 29.56 1001 10 16.0934 0 0
11:35 am 11:35 Sunny 58 14.5 42 5.7 56 56 E 17 28 29.59 1002 10 16.0934 0 0
11:55 am 11:55 Sunny 57 14.1 42 5.5 56 56 E 23 37 29.56 1001 10 16.0934 0 0
12:15 pm 12:15 Sunny 61 15.9 43 6 52 52 E 21 33 29.53 1000 10 16.0934 0 0
12:35 pm 12:35 Sunny 60 15.6 43 6.1 53 53 E 21 33 29.5 999 10 16.0934 0 0
12:55 pm 12:55 Sunny 61 16.1 44 6.6 54 54 E 20 31 29.5 999 10 16.0934 0 0
1:15 pm 13:15 Sunny 62 16.9 44 6.9 52 52 E 23 37 29.5 999 10 16.0934 0 0
1:35 pm 13:35 Sunny 63 17.2 45 7.1 52 52 ENE 22 35 29.47 998 10 16.0934 0 0
1:55 pm 13:55 Sunny 63 17.4 45 7.4 52 52 E 24 39 29.44 997 10 16.0934 0 0
2:15 pm 14:15 Sunny 64 17.8 46 7.7 52 52 E 18 30 29.44 997 10 16.0934 0 0
2:35 pm 14:35 Sunny 64 18 46 7.7 51 51 E 21 33 29.44 997 10 16.0934 0 0
2:55 pm 14:55 Sunny 65 18.1 46 7.7 51 51 E 18 30 29.44 997 10 16.0934 0 0
3:15 pm 15:15 Sunny 65 18.6 46 7.9 50 50 E 22 35 29.38 995 10 16.0934 0 0
3:35 pm 15:35 Sunny 66 19 46 8 49 49 E 17 28 29.38 995 10 16.0934 0 0
3:55 pm 15:55 Sunny 67 19.3 47 8.3 49 49 E 18 30 29.38 995 10 16.0934 0 0
4:15 pm 16:15 Sunny 68 19.8 48 8.8 49 49 E 20 31 29.35 994 10 16.0934 0 0
4:35 pm 16:35 Sunny 68 19.9 48 9.1 50 50 E 18 30 29.35 994 10 16.0934 0 0
4:55 pm 16:55 Sunny 68 20 48 9.1 50 50 E 22 35 29.32 993 10 16.0934 0 0
5:15 pm 17:15 Sunny 69 20.3 49 9.4 50 50 E 13 20 29.35 994 10 16.0934 0 0
5:35 pm 17:35 Sunny 68 20.1 49 9.4 50 50 E 15 24 29.35 994 10 16.0934 0 0
5:55 pm 17:55 Sunny 68 20 49 9.3 50 50 ENE 17 28 29.35 994 10 16.0934 0 0
6:15 pm 18:15 Sunny 68 19.9 49 9.3 51 51 ENE 18 30 29.32 993 10 16.0934 0 0
6:35 pm 18:35 Sunny 68 20 48 9.1 50 50 ENE 22 35 29.32 993 10 16.0934 0 0
6:55 pm 18:55 Sunny 66 18.7 48 8.8 53 53 NE 18 30 29.32 993 10 16.0934 0 0
7:15 pm 19:15 Sunny 65 18.1 47 8.5 54 54 NE 17 28 29.32 993 10 16.0934 0 0
7:35 pm 19:35 Sunny 64 17.5 47 8.3 55 55 ENE 17 28 29.32 993 10 16.0934 0 0
7:55 pm 19:55 Sunny 62 16.8 47 8.1 57 57 ENE 16 26 29.35 994 10 16.0934 0 0
8:15 pm 20:15 Clear 60 15.8 46 8 60 60 ENE 16 26 29.35 994 10 16.0934 0 0
8:35 pm 20:35 Clear 60 15.3 46 7.7 61 61 ENE 16 26 29.35 994 10 16.0934 0 0
8:55 pm 20:55 Clear 59 15 45 7.4 61 61 NE 16 26 29.35 994 10 16.0934 0 0
9:15 pm 21:15 Clear 58 14.7 45 7.3 61 61 NE 22 35 29.32 993 10 16.0934 0 0
9:35 pm 21:35 Clear 58 14.5 44 6.8 60 60 NE 22 35 29.32 993 10 16.0934 0 0
9:55 pm 21:55 Clear 57 14.1 44 6.7 61 61 ENE 23 37 29.32 993 10 16.0934 0 0
10:15 pm 22:15 Clear 56 13.6 44 6.5 62 62 NE 22 35 29.32 993 10 16.0934 0 0
10:35 pm 22:35 Clear 55 12.8 43 6.3 65 65 NE 23 37 29.32 993 10 16.0934 0 0
10:55 pm 22:55 Clear 55 12.6 43 6.1 65 65 NE 22 35 29.32 993 10 16.0934 0 0
11:15 pm 23:15 Clear 54 12.4 43 6 65 65 NE 24 39 29.32 993 10 16.0934 0 0
11:35 pm 23:35 Clear 54 12.2 43 6 66 66 NE 22 35 29.29 992 10 16.0934 0 0
11:55 pm 23:55 Clear 54 12 43 6 67 67 NE 24 39 29.29 992 10 16.0934 0 0

Powered by AerisWeather